Weather History for KMKE - August, 2014

Change the Weather History Date:

Tuesday, August 26, 2014

  Actual Average Record
Temperature  
Mean Temperature 73 °F 70 °F  
Max Temperature 79 °F 78 °F 96 °F (1953)
Min Temperature 66 °F 62 °F 47 °F (1964)
Degree Days  
Heating Degree Days 0 1  
Month to date heating degree days 5 5  
Since 1 June heating degree days 100 100  
Since 1 July heating degree days 26 16  
Cooling Degree Days 8 5  
Month to date cooling degree days 137 169  
Year to date cooling degree days 372 541  
Since 1 June cooling degree days 354 511  
Growing Degree Days 22 (Base 50)    
Moisture  
Dew Point 63 °F    
Average Humidity 69    
Maximum Humidity 84    
Minimum Humidity 54    
Precipitation  
Precipitation 0.02 in 0.12 in 1.77 in (1921)
Month to date precipitation 5.01 3.37  
Year to date precipitation 24.61 23.58  
Snow  
Snow 0.00 in 0.00 in 0.00 in ()
Month to date snowfall 0.0 0.0  
Since 1 June snowfall 0.0 0.0  
Since 1 July snowfall 0.0 0.0  
Snow Depth 0.00 in    
Sea Level Pressure  
Sea Level Pressure 30.07 in    
Wind  
Wind Speed 6 mph (WNW)    
Max Wind Speed 16 mph    
Max Gust Speed 19 mph    
Visibility 10 miles    
Events Rain , Thunderstorm    
T = Trace of Precipitation, MM = Missing Value Source: NWS Daily Summary

Daily Weather History Graph

Daily Weather History Graph

Search for Another Location

Airport or City:

Trip Planner

Search our weather history database for the weather conditions in past years. The results will help you decide how hot, cold, wet, or windy it might be!

Date:

Astronomy

Aug. 26, 2014 Rise Set
Actual Time 6:09 AM CDT 7:36 PM CDT
Civil Twilight 5:39 AM CDT 8:05 PM CDT
Nautical Twilight 5:04 AM CDT 8:41 PM CDT
Astronomical Twilight 4:26 AM CDT 9:19 PM CDT
Moon 7:12 AM CDT (8/26) 7:54 PM CDT (8/26)
Length of Visible Light 14h 26m
Length of Day
13h 26m
New Moon, 1% of the Moon is Illuminated
Aug 26
New Moon
Sep 2
First Quarter
Sep 8
Full
Sep 15
Last Quarter
Sep 24
New

Hourly Weather History & Observations

Time (CDT) Temp. Dew Point Humidity Pressure Visibility Wind Dir Wind Speed Gust Speed Precip Events Conditions
12:52 AM 72.0 °F 64.9 °F 78% 30.01 in 10.0 mi West 3.5 mph - N/A   Partly Cloudy
1:52 AM 71.1 °F 64.9 °F 81% 30.00 in 10.0 mi SW 5.8 mph - N/A   Partly Cloudy
2:52 AM 73.0 °F 64.9 °F 76% 30.00 in 10.0 mi WSW 6.9 mph - N/A   Mostly Cloudy
3:52 AM 71.6 °F 64.4 °F 78% 30.01 in 10.0 mi WSW 5.8 mph - N/A   Scattered Clouds
4:52 AM 71.1 °F 64.9 °F 81% 30.01 in 10.0 mi SW 3.5 mph - N/A   Scattered Clouds
5:52 AM 71.1 °F 64.9 °F 81% 30.03 in 10.0 mi Calm Calm - N/A   Mostly Cloudy
6:52 AM 71.1 °F 66.0 °F 84% 30.05 in 10.0 mi NW 6.9 mph - N/A   Mostly Cloudy
7:52 AM 73.0 °F 64.9 °F 76% 30.08 in 10.0 mi NNW 10.4 mph - N/A   Overcast
8:52 AM 72.0 °F 62.1 °F 71% 30.09 in 10.0 mi NNW 9.2 mph - N/A   Overcast
9:52 AM 71.6 °F 60.8 °F 69% 30.12 in 10.0 mi NNW 11.5 mph - N/A Rain Light Rain
10:32 AM 71.1 °F 62.1 °F 73% 30.13 in 10.0 mi NNW 4.6 mph - 0.01 in Thunderstorm Thunderstorm
10:52 AM 71.1 °F 62.1 °F 73% 30.14 in 10.0 mi NW 8.1 mph - 0.01 in   Overcast
11:52 AM 68.0 °F 64.0 °F 87% 30.09 in 10.0 mi East 8.1 mph - 0.00 in Rain Light Rain
12:52 PM 70.0 °F 64.0 °F 81% 30.09 in 10.0 mi Calm Calm - 0.01 in   Mostly Cloudy
1:52 PM 73.9 °F 63.0 °F 68% 30.09 in 10.0 mi Variable 3.5 mph - N/A   Scattered Clouds
2:52 PM 78.1 °F 63.0 °F 60% 30.08 in 10.0 mi West 8.1 mph - N/A   Partly Cloudy
3:52 PM 77.0 °F 63.0 °F 62% 30.09 in 10.0 mi Variable 6.9 mph - N/A   Mostly Cloudy
4:52 PM 77.0 °F 62.1 °F 60% 30.08 in 10.0 mi SW 10.4 mph - N/A   Mostly Cloudy
5:52 PM 78.1 °F 60.1 °F 54% 30.06 in 10.0 mi WNW 6.9 mph - N/A   Mostly Cloudy
6:52 PM 75.9 °F 60.1 °F 58% 30.06 in 10.0 mi NW 6.9 mph - N/A   Mostly Cloudy
7:52 PM 73.0 °F 57.9 °F 59% 30.08 in 10.0 mi NNW 5.8 mph - N/A   Scattered Clouds
8:52 PM 69.1 °F 59.0 °F 70% 30.08 in 10.0 mi NNW 4.6 mph - N/A   Partly Cloudy
9:52 PM 69.1 °F 60.1 °F 73% 30.11 in 10.0 mi NNW 3.5 mph - N/A   Partly Cloudy
10:52 PM 66.9 °F 59.0 °F 76% 30.11 in 10.0 mi NW 3.5 mph - N/A   Partly Cloudy
11:52 PM 66.9 °F 60.1 °F 79% 30.12 in 10.0 mi NW 5.8 mph - N/A   Partly Cloudy